• In Belarus
  • List of Countries
  • For 7 days
  • Water Temperature
  • Satellite Maps
  • Weather Map
  • Weather Widgets
  • user-avatar
    Login

    Hourly Weather Maseru

    Today, 15 December, Saturday

    Time Temperature Precipitation Wind Pressure Humidity
    00:00 +24°C° 0 mm 2 mps 638 mmHg 25%
    01:00 +24°C° 0 mm 3 mps 638 mmHg 28%
    02:00 +24°C° 0 mm 3 mps 638 mmHg 32%
    03:00 +21°C° 0.2 mm 3 mps 638 mmHg 39%
    04:00 +20°C° 0.2 mm 2 mps 637 mmHg 46%
    05:00 +19°C° 0.2 mm 2 mps 637 mmHg 53%
    06:00 +21°C° 0 mm 3 mps 638 mmHg 49%
    07:00 +23°C° 0 mm 4 mps 639 mmHg 45%
    08:00 +26°C° 0 mm 5 mps 640 mmHg 41%
    09:00 +28°C° 0 mm 5 mps 640 mmHg 34%
    10:00 +30°C° 0 mm 5 mps 641 mmHg 28%
    11:00 +33°C° 0 mm 6 mps 641 mmHg 21%
    12:00 +34°C° 0 mm 6 mps 641 mmHg 19%
    13:00 +35°C° 0 mm 7 mps 641 mmHg 17%
    14:00 +35°C° 0 mm 7 mps 640 mmHg 14%
    15:00 +35°C° 0 mm 7 mps 640 mmHg 14%
    16:00 +35°C° 0 mm 6 mps 640 mmHg 13%
    17:00 +35°C° 0 mm 6 mps 639 mmHg 12%
    18:00 +32°C° 0 mm 5 mps 639 mmHg 17%
    19:00 +29°C° 0 mm 4 mps 638 mmHg 21%
    20:00 +26°C° 0 mm 3 mps 638 mmHg 25%
    21:00 +25°C° 0 mm 2 mps 638 mmHg 32%
    22:00 +24°C° 0 mm 2 mps 638 mmHg 39%
    23:00 +23°C° 0 mm 1 mps 639 mmHg 46%

    Tomorrow, 16 December, Sunday

    Time Temperature Precipitation Wind Pressure Humidity
    00:00 +22°C° 0 mm 1 mps 638 mmHg 49%
    01:00 +20°C° 0 mm 2 mps 638 mmHg 52%
    02:00 +20°C° 0 mm 2 mps 638 mmHg 56%
    03:00 +19°C° 0 mm 2 mps 638 mmHg 59%
    04:00 +20°C° 0 mm 1 mps 638 mmHg 62%
    05:00 +19°C° 0 mm 1 mps 638 mmHg 66%
    06:00 +20°C° 0 mm 2 mps 638 mmHg 59%
    07:00 +22°C° 0 mm 3 mps 639 mmHg 53%
    08:00 +26°C° 0 mm 4 mps 640 mmHg 47%
    09:00 +28°C° 0 mm 4 mps 640 mmHg 40%
    10:00 +30°C° 0 mm 5 mps 640 mmHg 32%
    11:00 +33°C° 0 mm 5 mps 640 mmHg 25%
    12:00 +34°C° 0 mm 5 mps 640 mmHg 22%
    13:00 +35°C° 0 mm 5 mps 640 mmHg 18%
    14:00 +36°C° 0 mm 5 mps 639 mmHg 14%
    15:00 +36°C° 0 mm 5 mps 639 mmHg 14%
    16:00 +35°C° 0 mm 5 mps 638 mmHg 14%
    17:00 +35°C° 0 mm 5 mps 638 mmHg 14%
    18:00 +33°C° 0 mm 3 mps 637 mmHg 17%
    19:00 +29°C° 0 mm 2 mps 637 mmHg 20%
    20:00 +26°C° 0 mm 1 mps 636 mmHg 23%
    21:00 +26°C° 0 mm 2 mps 636 mmHg 24%
    22:00 +25°C° 0 mm 2 mps 637 mmHg 25%
    23:00 +25°C° 0 mm 3 mps 638 mmHg 27%

    Day after tomorrow, 17 December, Monday

    Time Temperature Precipitation Wind Pressure Humidity
    00:00 +24°C° 0 mm 3 mps 637 mmHg 31%
    01:00 +24°C° 0 mm 2 mps 637 mmHg 36%
    02:00 +23°C° 0 mm 2 mps 637 mmHg 40%
    03:00 +21°C° 0.1 mm 2 mps 637 mmHg 44%
    04:00 +21°C° 0.1 mm 2 mps 637 mmHg 47%
    05:00 +21°C° 0.1 mm 2 mps 637 mmHg 51%
    06:00 +23°C° 0 mm 2 mps 638 mmHg 48%
    07:00 +25°C° 0 mm 3 mps 638 mmHg 44%
    08:00 +26°C° 0 mm 3 mps 639 mmHg 41%
    09:00 +28°C° 0 mm 3 mps 639 mmHg 37%
    10:00 +30°C° 0 mm 4 mps 640 mmHg 32%
    11:00 +33°C° 0 mm 4 mps 640 mmHg 28%
    12:00 +33°C° 0 mm 4 mps 639 mmHg 27%
    13:00 +33°C° 0 mm 3 mps 639 mmHg 25%
    14:00 +33°C° 0 mm 3 mps 638 mmHg 24%
    15:00 +33°C° 0 mm 3 mps 638 mmHg 24%
    16:00 +33°C° 0 mm 3 mps 637 mmHg 24%
    17:00 +34°C° 0 mm 2 mps 637 mmHg 23%
    18:00 +31°C° 0 mm 3 mps 637 mmHg 27%
    19:00 +29°C° 0 mm 3 mps 637 mmHg 31%
    20:00 +27°C° 0 mm 3 mps 637 mmHg 35%
    21:00 +25°C° 0.5 mm 3 mps 637 mmHg 43%
    22:00 +24°C° 0.5 mm 3 mps 637 mmHg 51%
    23:00 +21°C° 0.5 mm 2 mps 637 mmHg 59%

    18 December, Tuesday

    Time Temperature Precipitation Wind Pressure Humidity
    00:00 +21°C° 0.2 mm 2 mps 637 mmHg 61%
    01:00 +21°C° 0.2 mm 2 mps 636 mmHg 62%
    02:00 +21°C° 0.2 mm 2 mps 636 mmHg 63%
    03:00 +20°C° 0.1 mm 2 mps 636 mmHg 65%
    04:00 +20°C° 0.1 mm 2 mps 635 mmHg 67%
    05:00 +19°C° 0.1 mm 2 mps 635 mmHg 69%
    06:00 +21°C° 0 mm 3 mps 636 mmHg 61%
    07:00 +24°C° 0 mm 3 mps 636 mmHg 54%
    08:00 +26°C° 0 mm 3 mps 637 mmHg 46%
    09:00 +28°C° 0 mm 4 mps 637 mmHg 41%
    10:00 +29°C° 0 mm 5 mps 638 mmHg 36%
    11:00 +32°C° 0 mm 5 mps 638 mmHg 30%
    12:00 +30°C° 0.5 mm 5 mps 638 mmHg 34%
    13:00 +29°C° 0.5 mm 5 mps 637 mmHg 38%
    14:00 +28°C° 0.5 mm 4 mps 636 mmHg 42%
    15:00 +28°C° 0.4 mm 4 mps 636 mmHg 41%
    16:00 +28°C° 0.4 mm 3 mps 636 mmHg 41%
    17:00 +28°C° 0.4 mm 3 mps 635 mmHg 41%
    18:00 +26°C° 0 mm 2 mps 635 mmHg 46%
    19:00 +24°C° 0 mm 2 mps 634 mmHg 50%
    20:00 +23°C° 0 mm 1 mps 634 mmHg 55%
    21:00 +22°C° 0 mm 1 mps 634 mmHg 55%
    22:00 +22°C° 0 mm 1 mps 634 mmHg 56%
    23:00 +22°C° 0 mm 1 mps 634 mmHg 57%

    19 December, Wednesday

    Time Temperature Precipitation Wind Pressure Humidity
    00:00 +21°C° 0 mm 1 mps 634 mmHg 57%
    01:00 +21°C° 0 mm 1 mps 633 mmHg 58%
    02:00 +20°C° 0 mm 1 mps 633 mmHg 58%
    03:00 +20°C° 0.1 mm 1 mps 633 mmHg 59%
    04:00 +20°C° 0.1 mm 1 mps 633 mmHg 59%
    05:00 +20°C° 0.1 mm 1 mps 633 mmHg 60%
    06:00 +21°C° 0 mm 2 mps 634 mmHg 52%
    07:00 +25°C° 0 mm 2 mps 635 mmHg 45%
    08:00 +27°C° 0 mm 3 mps 636 mmHg 37%
    09:00 +29°C° 0 mm 3 mps 636 mmHg 34%
    10:00 +32°C° 0 mm 4 mps 636 mmHg 31%
    11:00 +33°C° 0 mm 4 mps 636 mmHg 27%
    12:00 +33°C° 0 mm 4 mps 636 mmHg 28%
    13:00 +32°C° 0 mm 4 mps 636 mmHg 29%
    14:00 +31°C° 0 mm 3 mps 635 mmHg 30%
    15:00 +31°C° 0 mm 3 mps 635 mmHg 28%
    16:00 +31°C° 0 mm 3 mps 635 mmHg 26%
    17:00 +33°C° 0 mm 3 mps 635 mmHg 25%
    18:00 +29°C° 0 mm 2 mps 635 mmHg 28%
    19:00 +27°C° 0 mm 2 mps 634 mmHg 32%
    20:00 +25°C° 0 mm 1 mps 634 mmHg 35%
    21:00 +24°C° 0 mm 1 mps 633 mmHg 37%
    22:00 +23°C° 0 mm 1 mps 633 mmHg 39%
    23:00 +22°C° 0 mm 1 mps 633 mmHg 40%

    20 December, Thursday

    Time Temperature Precipitation Wind Pressure Humidity
    00:00 +21°C° 0 mm 1 mps 633 mmHg 41%
    01:00 +20°C° 0 mm 1 mps 633 mmHg 42%
    02:00 +17°C° 0 mm 0 mps 633 mmHg 42%
    03:00 +17°C° 0 mm 0 mps 633 mmHg 42%
    04:00 +16°C° 0 mm 0 mps 633 mmHg 43%
    05:00 +16°C° 0 mm 0 mps 633 mmHg 43%
    06:00 +21°C° 0 mm 1 mps 634 mmHg 38%
    07:00 +24°C° 0 mm 1 mps 636 mmHg 33%
    08:00 +27°C° 0 mm 2 mps 637 mmHg 28%
    09:00 +28°C° 0 mm 2 mps 637 mmHg 25%
    10:00 +30°C° 0 mm 3 mps 637 mmHg 21%
    11:00 +33°C° 0 mm 3 mps 637 mmHg 18%
    12:00 +33°C° 0 mm 4 mps 637 mmHg 16%
    13:00 +33°C° 0 mm 5 mps 637 mmHg 14%
    14:00 +34°C° 0 mm 6 mps 637 mmHg 12%
    15:00 +34°C° 0 mm 6 mps 636 mmHg 12%
    16:00 +34°C° 0 mm 7 mps 636 mmHg 12%
    17:00 +33°C° 0 mm 7 mps 636 mmHg 12%
    18:00 +30°C° 0 mm 6 mps 636 mmHg 15%
    19:00 +27°C° 0 mm 4 mps 635 mmHg 18%
    20:00 +25°C° 0 mm 2 mps 635 mmHg 22%
    21:00 +23°C° 0 mm 2 mps 635 mmHg 25%
    22:00 +21°C° 0 mm 2 mps 635 mmHg 28%
    23:00 +21°C° 0 mm 1 mps 635 mmHg 31%
    Show more